Location: *
(49.8292°S, 175.6452°W)
Time: 20:58:13
(UTC+00:00)

H-2A R/B - Pass Details

Date: 15 October 2024
Orbit: 561 x 632 km, 98.4° (Epoch: 06 November)

Event Time Altitude Azimuth Distance (km) Brightness Sun altitude
Exits shadow 10:53:37 29° 168° (SSE) 1,098 3.8 -30.9°
Drops below altitude 10° 10:55:56 10° 185° (S) 1,952 5.5 -31.0°
Sets 10:58:12 0° 190° (S) 2,874 6.6 -31.0°
